| time (UTC) | temp F | wind direction | speed MPH | gust MPH | rain 1hr in | rain 24hr in | rain mn in | humidity % | barometer mb |
| 20260903213014 | 63 | 6.0 | 12.0 | 0.00 | 0.00 | 0.00 | 71 | 997.1 | |
| 20260903211509 | 61 | 3.0 | 8.0 | 0.00 | 0.00 | 0.00 | 75 | 997.5 | |
| 20260903210005 | 61 | 0.0 | 1.0 | 0.00 | 0.00 | 0.00 | 77 | 997.3 | |
| 20260903204605 | 60 | 0.0 | 2.0 | 0.00 | 0.00 | 0.00 | 77 | 997.6 | |
| 20260903203056 | 0 | 0.0 | 0.0 | 0.00 | 0.00 | 0.00 | 997.6 | ||
| 20260903201552 | 0 | 0.0 | 0.0 | 0.00 | 0.00 | 0.00 | 997.9 | ||
| 20260903200050 | 0 | 0.0 | 0.0 | 0.00 | 0.00 | 0.00 | 998.1 | ||
| 20260903194549 | 0 | 0.0 | 0.0 | 0.00 | 0.00 | 0.00 | 998.2 | ||
| 20260903193039 | 0 | 0.0 | 0.0 | 0.00 | 0.00 | 0.00 | 998.3 | ||
| 20260903191544 | 0 | 0.0 | 0.0 | 0.00 | 0.00 | 0.00 | 998.4 | ||
| 20260903190031 | 0 | 0.0 | 0.0 | 0.00 | 0.00 | 0.00 | 998.5 | ||
| 20260903184525 | 0 | 0.0 | 0.0 | 0.00 | 0.00 | 0.00 | 998.1 | ||
| 20260903183034 | 0 | 0.0 | 0.0 | 0.00 | 0.00 | 0.00 | 998.1 | ||
| 20260903181520 | 0 | 0.0 | 0.0 | 0.00 | 0.00 | 0.00 | 998.3 | ||
| 20260903180014 | 0 | 0.0 | 0.0 | 0.00 | 0.00 | 0.00 | 998.4 | ||
| 20260903174515 | 0 | 0.0 | 0.0 | 0.00 | 0.00 | 0.00 | 998.8 | ||
| 20260903173003 | 0 | 0.0 | 0.0 | 0.00 | 0.00 | 0.00 | 999.1 | ||
| 20260903171605 | 0 | 0.0 | 0.0 | 0.00 | 0.00 | 0.00 | 999.6 | ||
| 20260903170056 | 0 | 0.0 | 0.0 | 0.00 | 0.00 | 0.00 | 999.9 | ||
| 20260903164555 | 0 | 0.0 | 0.0 | 0.00 | 0.00 | 0.00 | 1000.2 | ||
| 20260903163046 | 0 | 0.0 | 0.0 | 0.00 | 0.00 | 0.00 | 1000.7 | ||
| 20260903161559 | 0 | 0.0 | 0.0 | 0.00 | 0.00 | 0.00 | 1000.9 | ||
| 20260903160037 | -90 | 291 | 1.0 | 4.0 | 0.00 | 0.00 | 0.00 | 74 | 1001.3 |
| 20260903154534 | 58 | 269 | 2.0 | 9.0 | 0.00 | 0.00 | 0.00 | 76 | 1002.0 |
| 20260903153031 | 57 | 281 | 2.0 | 4.0 | 0.00 | 0.00 | 0.00 | 74 | 1002.4 |
| 20260903151529 | 58 | 288 | 4.0 | 9.0 | 0.00 | 0.00 | 0.00 | 73 | 1002.6 |
| 20260903150029 | 57 | 255 | 5.0 | 11.0 | 0.00 | 0.00 | 0.00 | 73 | 1003.0 |
| 20260903144526 | 57 | 269 | 6.0 | 10.0 | 0.00 | 0.00 | 0.00 | 73 | 1003.4 |
| 20260903143023 | 57 | 278 | 5.0 | 8.0 | 0.00 | 0.00 | 0.00 | 70 | 1003.7 |
| 20260903141517 | 57 | 268 | 4.0 | 8.0 | 0.00 | 0.00 | 0.00 | 70 | 1003.9 |
| 20260903140017 | 56 | 264 | 2.0 | 5.0 | 0.00 | 0.00 | 0.00 | 71 | 1004.6 |
| 20260903134613 | 56 | 273 | 1.0 | 4.0 | 0.00 | 0.00 | 0.00 | 70 | 1005.0 |
| 20260903133017 | 56 | 274 | 2.0 | 5.0 | 0.00 | 0.00 | 0.00 | 72 | 1005.2 |
| 20260903131512 | 55 | 288 | 2.0 | 4.0 | 0.00 | 0.00 | 0.00 | 74 | 1005.5 |
| 20260903130004 | 55 | 314 | 0.0 | 1.0 | 0.00 | 0.00 | 0.00 | 75 | 1005.4 |
| 20260903124501 | 56 | 278 | 0.0 | 4.0 | 0.00 | 0.00 | 0.00 | 75 | 1005.8 |
| 20260903123059 | 57 | 264 | 4.0 | 7.0 | 0.00 | 0.00 | 0.00 | 75 | 1006.1 |
| 20260903121600 | 56 | 286 | 4.0 | 8.0 | 0.00 | 0.00 | 0.00 | 73 | 1005.8 |
| 20260903120052 | 57 | 267 | 1.0 | 8.0 | 0.00 | 0.00 | 0.00 | 67 | 1005.8 |
| 20260903114549 | 56 | 267 | 4.0 | 8.0 | 0.00 | 0.00 | 0.00 | 69 | 1006.4 |
| 20260903113048 | 55 | 300 | 5.0 | 8.0 | 0.00 | 0.00 | 0.00 | 71 | 1006.4 |
| 20260903111546 | 56 | 276 | 0.0 | 5.0 | 0.00 | 0.00 | 0.00 | 69 | 1006.6 |
| 20260903110043 | 55 | 267 | 5.0 | 8.0 | 0.00 | 0.00 | 0.00 | 73 | 1007.0 |
| 20260903104542 | 53 | 269 | 2.0 | 3.0 | 0.00 | 0.00 | 0.00 | 76 | 1007.1 |
| 20260903103043 | 55 | 269 | 2.0 | 4.0 | 0.00 | 0.00 | 0.00 | 75 | 1007.1 |
| 20260903101539 | 56 | 268 | 0.0 | 2.0 | 0.00 | 0.00 | 0.00 | 74 | 1007.4 |
| 20260903100037 | 56 | 306 | 4.0 | 6.0 | 0.00 | 0.00 | 0.00 | 74 | 1007.6 |
| 20260903094537 | 57 | 286 | 6.0 | 11.0 | 0.00 | 0.00 | 0.00 | 74 | 1007.8 |
| 20260903093035 | 56 | 284 | 4.0 | 8.0 | 0.00 | 0.00 | 0.00 | 74 | 1007.6 |
| 20260903091551 | 56 | 288 | 2.0 | 5.0 | 0.00 | 0.00 | 0.00 | 74 | 1007.8 |
| 20260903090034 | 57 | 269 | 3.0 | 6.0 | 0.00 | 0.00 | 0.00 | 73 | 1008.0 |
| 20260903084532 | 57 | 262 | 3.0 | 6.0 | 0.00 | 0.00 | 0.00 | 73 | 1008.0 |
| 20260903083031 | 56 | 286 | 4.0 | 7.0 | 0.00 | 0.00 | 0.00 | 73 | 1008.0 |
| 20260903081532 | 56 | 286 | 0.0 | 2.0 | 0.00 | 0.00 | 0.00 | 72 | 1008.1 |
| 20260903080032 | 57 | 339 | 0.0 | 3.0 | 0.00 | 0.00 | 0.00 | 72 | 1008.1 |
| 20260903074529 | 57 | 313 | 2.0 | 5.0 | 0.00 | 0.00 | 0.00 | 72 | 1008.0 |
| 20260903073038 | 57 | 331 | 1.0 | 5.0 | 0.00 | 0.00 | 0.00 | 72 | 1007.8 |
| 20260903071523 | 57 | 331 | 1.0 | 5.0 | 0.00 | 0.00 | 0.00 | 71 | 1008.0 |
| 20260903070019 | 58 | 291 | 3.0 | 8.0 | 0.00 | 0.00 | 0.00 | 70 | 1008.0 |
| 20260903064516 | 58 | 326 | 4.0 | 9.0 | 0.00 | 0.00 | 0.00 | 69 | 1007.8 |
| 20260903063018 | 58 | 307 | 5.0 | 9.0 | 0.00 | 0.00 | 0.00 | 70 | 1007.9 |
| 20260903061516 | 58 | 296 | 4.0 | 10.0 | 0.00 | 0.00 | 0.00 | 69 | 1007.9 |
| 20260903060018 | 59 | 295 | 4.0 | 14.0 | 0.00 | 0.00 | 0.00 | 68 | 1007.7 |
| 20260903054514 | 59 | 305 | 6.0 | 11.0 | 0.00 | 0.00 | 0.00 | 67 | 1007.7 |
| 20260903053013 | 60 | 264 | 4.0 | 14.0 | 0.00 | 0.00 | 0.00 | 66 | 1007.7 |
| 20260903051514 | 61 | 274 | 7.0 | 13.0 | 0.00 | 0.00 | 0.00 | 65 | 1007.6 |
| 20260903050012 | 61 | 353 | 8.0 | 14.0 | 0.00 | 0.00 | 0.00 | 64 | 1007.7 |
| 20260903044510 | 62 | 286 | 10.0 | 18.0 | 0.00 | 0.00 | 0.00 | 63 | 1007.8 |
| 20260903043010 | 62 | 306 | 10.0 | 15.0 | 0.00 | 0.00 | 0.00 | 62 | 1007.8 |
| 20260903041510 | 63 | 286 | 11.0 | 15.0 | 0.00 | 0.00 | 0.00 | 60 | 1007.7 |
| 20260903040009 | 64 | 261 | 9.0 | 17.0 | 0.00 | 0.00 | 0.00 | 59 | 1007.7 |
| 20260903034516 | 65 | 269 | 8.0 | 18.0 | 0.00 | 0.00 | 0.00 | 57 | 1007.9 |
| 20260903033004 | 65 | 288 | 9.0 | 15.0 | 0.00 | 0.00 | 0.00 | 56 | 1007.9 |
| 20260903031503 | 66 | 340 | 9.0 | 15.0 | 0.00 | 0.00 | 0.00 | 55 | 1008.0 |
| 20260903030002 | 67 | 274 | 11.0 | 18.0 | 0.00 | 0.00 | 0.00 | 49 | 1008.0 |
| 20260903024600 | 68 | 309 | 10.0 | 16.0 | 0.00 | 0.00 | 0.00 | 47 | 1008.0 |
| 20260903023105 | 68 | 236 | 6.0 | 14.0 | 0.00 | 0.00 | 0.00 | 49 | 1008.1 |
| 20260903021555 | 68 | 278 | 9.0 | 15.0 | 0.00 | 0.00 | 0.00 | 46 | 1008.2 |
| 20260903020055 | 68 | 253 | 9.0 | 20.0 | 0.00 | 0.00 | 0.00 | 48 | 1008.4 |
| 20260903014556 | 68 | 233 | 10.0 | 17.0 | 0.00 | 0.00 | 0.00 | 49 | 1008.5 |
| 20260903013050 | 68 | 271 | 7.0 | 15.0 | 0.00 | 0.00 | 0.00 | 50 | 1008.8 |
| 20260903011544 | 68 | 271 | 9.0 | 17.0 | 0.00 | 0.00 | 0.00 | 50 | 1009.0 |
| 20260903010041 | 68 | 300 | 11.0 | 17.0 | 0.00 | 0.00 | 0.00 | 50 | 1009.2 |
| 20260903004539 | 68 | 290 | 10.0 | 18.0 | 0.00 | 0.00 | 0.00 | 50 | 1009.4 |
| 20260903003037 | 68 | 271 | 9.0 | 15.0 | 0.00 | 0.00 | 0.00 | 49 | 1009.8 |
| 20260903001536 | 67 | 279 | 6.0 | 11.0 | 0.00 | 0.00 | 0.00 | 48 | 1009.9 |
| 20260903000041 | 69 | 271 | 4.0 | 14.0 | 0.00 | 0.00 | 0.00 | 47 | 1010.0 |
| 20260902234535 | 68 | 282 | 7.0 | 13.0 | 0.00 | 0.00 | 0.00 | 47 | 1010.1 |
| 20260902233032 | 68 | 300 | 5.0 | 11.0 | 0.00 | 0.00 | 0.00 | 49 | 1010.2 |
| 20260902231531 | 68 | 297 | 7.0 | 13.0 | 0.00 | 0.00 | 0.00 | 49 | 1010.3 |
| 20260902230027 | 67 | 266 | 7.0 | 14.0 | 0.00 | 0.00 | 0.00 | 50 | 1010.3 |
| 20260902224524 | 66 | 321 | 5.0 | 12.0 | 0.00 | 0.00 | 0.00 | 51 | 1010.4 |
| 20260902223042 | 66 | 280 | 7.0 | 11.0 | 0.00 | 0.00 | 0.00 | 52 | 1010.3 |
| 20260902221522 | 65 | 297 | 5.0 | 13.0 | 0.00 | 0.00 | 0.00 | 55 | 1010.4 |
| 20260902220016 | 64 | 263 | 6.0 | 12.0 | 0.00 | 0.00 | 0.00 | 58 | 1010.6 |
| 20260902214513 | 63 | 286 | 7.0 | 13.0 | 0.00 | 0.00 | 0.00 | 60 | 1010.7 |